Lapse_Rate
1.4 1.4 1.3 1.4 1.5 1.6 1.5 1.5 2.0 1.9 1.8 1.4 1.3 1.5 1.4 1.5 2.6 3.2 2.2 3.6 5.2 6.0 4.8 2.6 4.5 3.2 4.6 4.5 4.2 3.5 6.5 6.5 6.5 6.5 6.5 6.0 6.4 5.5 5.1 5.3 4.6 5.7 6.0 5.7 5.8
1.7 1.8 1.3 1.2 1.3 1.3 1.4 1.5 1.8 1.8 1.9 1.6 1.2 1.4 1.3 1.4 2.7 3.0 4.8 6.1 6.4 6.1 3.0 2.7 3.5 3.3 3.5 4.4 3.7 5.6 6.5 6.5 6.5 6.4 6.5 6.3 6.2 5.8 5.8 5.0 5.3 5.5 6.0 4.9 5.3
1.8 1.2 0.9 0.8 0.9 1.0 1.2 1.4 1.7 1.9 1.8 1.4 1.1 1.3 1.2 1.2 4.8 4.6 5.5 6.1 6.3 4.9 3.4 3.5 3.7 4.9 4.8 4.8 5.0 6.2 6.5 6.5 6.4 6.1 6.2 6.4 6.2 5.8 6.3 6.5 4.8 5.9 4.7 4.6 5.5
1.0 0.8 0.6 0.6 0.7 0.6 0.9 1.3 1.5 1.7 1.5 1.2 1.3 1.5 1.3 2.0 6.5 5.3 6.0 5.8 5.5 4.5 3.3 3.1 2.8 4.3 6.1 6.5 4.8 6.5 6.2 6.3 6.4 6.2 6.2 6.4 6.0 6.1 6.0 4.9 5.0 3.8 3.8 3.3 4.4
0.7 0.4 0.2 0.1 0.3 0.3 0.8 1.0 1.2 1.4 1.3 1.2 1.6 1.7 2.2 3.5 4.9 5.8 5.8 5.1 4.5 3.2 2.1 2.7 2.4 5.0 6.5 6.3 5.9 6.5 6.4 5.5 5.8 4.9 5.5 5.9 5.9 6.3 5.1 3.7 3.1 2.9 3.8 3.8 3.6
0.5 -0.0 -0.2 -0.2 0.0 0.2 0.7 0.7 0.7 1.0 1.2 1.4 1.8 1.7 3.8 5.7 5.2 5.1 4.5 4.8 3.9 3.3 3.0 2.6 4.6 4.5 5.2 6.2 6.4 6.0 6.2 5.7 5.5 5.9 6.0 6.4 6.2 6.2 5.5 5.2 4.3 3.6 4.0 3.7 3.5
0.4 -0.2 -0.5 -0.5 -0.1 0.2 0.8 0.6 0.8 1.0 1.2 1.5 2.0 1.9 3.3 5.5 5.2 4.9 4.3 4.9 4.2 4.6 4.0 4.5 4.6 5.5 5.1 6.5 5.5 6.0 6.5 6.5 6.1 6.2 6.4 5.5 6.5 6.5 5.3 4.5 4.0 3.5 3.3 3.6 3.7
0.1 -0.2 -0.5 -0.8 -0.3 0.1 0.6 0.9 1.4 1.4 1.5 1.9 2.4 2.7 4.9 5.9 5.5 4.9 3.7 4.9 3.9 5.1 4.5 4.6 4.7 4.8 5.5 5.4 5.6 6.5 6.5 6.5 6.5 6.2 6.2 6.3 6.5 6.5 4.6 4.7 3.8 3.7 3.3 4.6 4.8
0.2 -0.1 -0.5 -0.9 -0.5 -0.3 0.1 1.2 2.1 2.2 2.0 2.3 3.1 3.7 5.6 5.9 5.2 4.6 4.4 4.1 3.6 4.6 4.8 5.3 4.6 4.2 4.2 6.5 6.5 6.5 6.5 6.5 6.5 6.1 6.5 6.5 6.5 6.2 4.7 4.3 4.2 3.4 2.9 4.2 4.9
0.2 -0.1 -0.5 -0.8 -0.5 -0.2 0.0 1.3 2.4 2.4 2.4 2.7 3.1 5.0 4.8 5.0 4.7 4.8 4.5 4.5 4.3 4.3 4.9 4.3 2.8 6.5 6.5 6.5 6.5 6.5 6.5 6.5 6.5 6.5 6.5 6.5 6.5 6.5 4.9 5.0 4.3 3.0 2.8 3.4 3.6
0.2 0.0 -0.2 -0.4 -0.2 0.6 -1.4 -0.4 0.6 2.8 1.6 4.5 5.3 5.4 5.1 4.5 4.6 5.4 4.3 4.2 4.6 3.8 6.5 5.1 6.5 6.5 6.5 6.5 6.5 6.5 6.5 6.5 6.5 6.5 6.5 6.5 6.5 6.5 6.1 5.5 4.8 3.4 2.5 2.5 3.1
-0.0 -0.2 -0.2 -0.0 0.4 1.8 -1.3 -1.2 2.9 3.2 5.6 4.6 4.9 5.1 5.2 5.3 5.0 5.0 4.1 4.7 5.0 6.5 6.2 6.5 6.5 6.5 6.5 6.5 6.5 6.5 6.5 6.5 6.5 6.5 6.5 6.5 6.5 6.5 6.5 6.3 4.3 3.6 2.9 2.9 4.4
-0.1 -0.4 -0.1 0.0 1.3 0.1 0.5 1.8 3.1 2.9 5.0 5.1 5.6 5.4 5.6 5.5 5.6 5.0 4.4 5.3 6.2 6.5 6.5 6.5 6.5 6.5 6.5 6.5 6.5 6.5 6.5 6.5 6.5 6.5 6.5 6.5 6.5 6.5 6.5 6.2 5.5 5.1 4.9 4.8 4.8
0.1 -0.2 -0.2 0.2 1.6 -0.0 1.8 2.3 3.0 3.6 6.5 6.5 6.1 5.6 5.7 5.6 6.2 5.7 4.9 5.6 6.2 6.5 6.5 6.5 6.4 6.5 6.5 6.5 6.5 6.5 6.5 6.5 6.5 6.5 6.5 6.5 6.5 6.5 6.5 6.5 6.5 6.0 3.5 4.1 3.6
0.2 0.2 0.1 -0.1 0.3 1.4 2.8 2.4 3.0 2.9 6.5 6.5 6.2 5.7 5.4 5.9 6.0 5.9 5.2 5.8 6.5 6.5 6.5 6.5 6.5 6.5 6.5 6.5 6.5 6.5 6.5 6.5 6.5 6.5 6.5 6.5 6.5 6.5 6.5 6.5 6.5 6.1 5.1 3.8 2.8
0.2 0.3 0.6 0.8 0.3 2.7 1.9 2.3 3.0 6.5 6.5 6.5 6.2 6.4 6.3 6.1 6.3 5.8 5.6 5.7 6.1 6.5 6.5 6.5 6.2 6.5 6.5 6.5 6.5 6.5 6.5 6.5 6.5 6.5 6.5 6.5 6.5 6.5 6.5 6.5 6.5 6.3 5.1 3.7 3.1
0.2 0.4 0.9 1.5 2.4 2.2 1.3 2.8 6.5 6.5 6.5 6.5 6.5 6.5 6.5 6.5 6.5 6.5 6.5 6.5 6.5 6.5 6.5 6.5 6.5 6.5 6.4 6.5 6.5 6.5 6.5 6.5 6.5 6.5 6.5 6.5 6.5 6.5 6.5 6.5 6.5 6.4 5.0 3.8 3.2
0.0 0.4 1.5 2.2 2.5 1.5 1.5 6.1 6.5 6.5 6.5 6.5 6.5 6.5 6.5 6.5 6.5 6.5 6.5 6.5 6.5 6.5 6.5 6.5 6.5 6.5 6.5 6.5 6.5 6.5 6.5 6.5 6.5 6.5 6.5 6.5 6.5 6.5 6.5 5.7 5.8 5.5 4.8 3.3 3.0
-0.3 -1.4 0.8 1.8 2.1 0.8 3.2 6.5 6.5 6.5 6.5 6.5 6.5 6.5 6.5 6.5 6.5 6.5 6.5 6.5 6.5 6.5 6.5 6.5 6.5 6.5 6.5 6.5 6.5 6.5 6.5 6.5 6.5 6.5 6.5 6.5 6.5 6.5 6.5 6.5 6.3 5.4 4.8 3.3 3.2
-2.2 -1.3 1.4 2.0 1.4 1.0 5.5 6.5 6.5 6.5 6.5 6.5 6.5 6.5 6.5 6.5 6.5 6.5 6.5 6.5 6.5 6.5 6.3 6.5 6.5 6.5 6.5 6.4 6.5 6.5 6.5 6.5 6.5 6.5 6.5 6.5 6.5 6.5 6.5 6.5 6.5 6.4 4.9 3.7 3.6
-1.8 1.7 2.5 1.5 0.9 1.8 6.5 6.5 6.5 6.3 6.3 6.5 6.5 6.5 6.5 6.5 6.5 6.5 6.5 6.5 6.5 6.5 6.3 6.5 6.5 6.5 6.5 6.5 6.5 6.5 6.5 6.5 6.5 6.5 6.5 6.5 6.5 6.5 6.5 6.5 6.5 5.9 4.8 4.1 3.5
-0.6 5.5 2.0 0.9 3.9 4.4 6.5 6.5 6.4 6.4 5.7 6.4 6.5 6.5 6.5 6.5 6.5 6.5 6.5 6.5 5.3 6.2 6.5 6.5 6.5 6.5 6.5 6.5 6.5 6.5 6.5 6.5 6.5 6.5 6.5 6.5 6.5 6.5 6.5 6.4 5.0 4.6 4.3 3.4 3.2
0.7 1.1 1.5 2.3 6.5 6.5 6.2 6.5 6.4 6.5 6.5 6.5 6.5 6.5 6.5 6.5 6.5 6.5 6.5 6.1 4.9 6.2 6.5 6.5 6.5 6.5 6.5 6.5 6.5 6.5 6.5 6.5 6.5 6.5 6.5 6.5 6.5 6.5 6.2 6.3 6.2 6.0 5.8 4.8 3.7
1.1 6.5 2.6 1.2 3.0 6.4 6.5 6.5 6.5 6.3 6.4 6.4 6.5 6.3 6.5 6.5 6.5 6.5 6.5 6.4 5.1 6.0 6.8 5.9 6.5 6.5 6.5 6.5 6.5 6.5 6.5 6.5 6.5 6.5 6.5 6.5 6.5 6.5 6.5 6.5 6.3 6.2 4.7 3.2 2.8
0.4 5.0 5.0 6.5 5.9 6.1 6.4 6.5 6.5 6.5 6.2 5.6 6.5 6.5 6.5 6.5 6.5 6.5 6.5 6.5 6.2 6.0 6.0 6.5 6.5 6.5 6.5 6.5 6.5 6.5 6.5 6.5 6.5 6.5 6.5 6.5 6.5 6.5 6.5 6.5 5.5 4.9 4.9 4.9 4.4
2.6 3.7 3.2 4.4 5.1 6.4 6.5 6.5 6.5 6.5 6.5 6.5 6.5 6.5 6.5 6.5 6.5 6.5 6.5 6.5 6.5 6.1 6.5 6.4 6.5 6.5 6.5 6.5 6.5 6.5 6.5 6.5 6.5 6.5 6.5 6.5 6.5 6.6 5.4 4.7 6.2 6.3 6.6 6.4 5.3
-0.1 0.4 3.0 5.5 5.8 6.5 6.5 6.5 6.5 6.4 6.4 6.3 6.3 6.5 6.5 6.4 5.8 5.3 5.0 5.6 5.7 6.5 6.5 6.5 6.5 6.5 6.5 6.5 6.5 6.5 6.5 6.5 6.5 6.5 6.5 6.5 6.5 6.2 6.5 6.2 6.3 6.7 6.7 6.1 5.3
Wind_Speed
17 19 21 22 22 22 22 21 21 20 19 18 17 16 15 16 13 5 6 6 10 20 19 8 3 8 5 4 5 3 4 2 3 5 2 2 4 3 2 3 4 2 3 3 3
18 21 22 22 22 23 23 22 21 21 20 18 15 14 12 13 3 7 5 15 18 21 8 9 7 7 4 5 4 5 4 5 3 3 2 2 2 3 4 5 3 2 2 7 2
21 21 22 23 23 23 23 23 22 21 21 17 13 12 10 7 2 3 10 16 17 16 3 2 1 2 5 4 5 2 3 3 2 3 2 2 2 3 1 4 5 2 6 5 2
21 22 23 23 23 24 23 22 21 20 18 14 13 11 12 1 2 3 12 15 13 13 6 6 6 4 4 4 5 4 4 2 1 1 2 3 3 4 3 6 4 7 5 4 6
22 23 23 23 23 24 24 22 21 17 14 13 11 12 3 5 2 6 13 13 8 6 7 5 6 3 4 1 2 4 3 5 4 5 4 2 5 4 6 8 7 7 5 6 7
22 23 24 24 24 24 25 24 20 13 10 11 12 10 2 5 4 9 12 6 6 6 7 8 3 1 5 3 3 2 3 5 3 3 2 2 4 1 3 1 6 7 7 5 6
22 23 24 25 25 25 26 25 18 6 6 8 10 3 6 2 5 10 8 3 5 2 3 3 3 1 2 2 1 1 4 4 6 3 1 2 0 5 3 3 7 8 7 7 5
22 24 25 26 26 26 26 24 7 4 4 6 7 2 3 4 5 4 6 2 6 1 2 1 2 3 3 2 5 5 5 4 4 6 3 3 6 4 5 3 9 8 7 3 2
24 25 26 27 28 27 25 13 5 4 3 5 3 3 1 6 5 5 2 3 5 3 1 0 3 3 6 3 4 7 1 3 8 5 5 3 8 7 4 6 8 7 6 5 3
25 26 26 27 28 28 19 2 7 2 4 1 2 4 6 5 5 5 4 3 2 4 3 6 5 4 4 6 1 3 3 3 5 4 5 7 15 11 6 7 9 7 6 6 6
25 27 27 25 24 27 8 3 5 6 10 4 2 1 4 8 3 5 5 5 4 7 5 5 6 2 1 1 2 1 1 4 5 3 6 4 11 17 12 5 6 6 6 6 5
25 26 26 24 12 24 5 6 2 2 2 1 3 2 2 3 3 6 7 5 6 4 5 6 2 2 1 1 1 1 2 5 6 4 4 6 15 9 4 3 6 6 6 6 2
26 26 26 27 2 6 9 5 2 3 3 4 1 1 2 3 2 5 5 2 5 4 4 2 1 1 2 2 2 2 3 2 4 7 3 6 7 5 4 3 3 2 2 0 2
25 26 26 25 4 2 3 7 6 3 4 6 4 1 1 1 2 2 3 2 4 2 1 1 2 1 1 2 3 3 2 1 5 4 3 4 4 5 3 4 3 1 5 3 4
24 24 23 12 1 3 4 11 1 2 4 3 4 1 1 3 3 1 1 2 1 2 4 3 1 2 2 1 1 5 2 4 1 1 3 1 2 7 2 2 4 4 3 3 6
24 25 20 4 2 1 9 4 2 5 3 5 3 5 4 1 2 3 1 2 1 2 1 3 1 1 1 2 1 4 1 4 4 2 2 2 3 5 2 3 4 2 1 5 6
25 25 6 1 2 9 6 3 5 5 2 4 3 4 3 3 4 3 4 5 3 5 5 5 2 2 1 2 4 5 5 3 5 3 4 4 1 8 4 2 5 3 4 5 6
25 13 4 2 7 7 3 4 5 3 3 3 3 4 0 3 1 4 2 3 2 4 3 3 6 0 2 2 4 1 3 4 4 2 4 3 6 4 3 4 2 2 3 5 7
16 4 3 3 6 2 4 5 4 4 2 6 5 2 4 2 1 5 3 1 1 2 2 1 5 1 2 1 4 1 0 3 2 0 2 3 6 7 5 3 2 5 5 7 7
2 3 3 9 4 3 4 2 2 1 2 1 2 3 2 4 5 5 1 2 2 1 1 3 4 1 1 2 1 1 3 2 2 2 4 5 5 4 2 4 3 4 6 7 6
3 3 3 13 2 4 3 3 2 2 1 2 2 3 0 2 3 3 2 1 2 1 2 1 2 5 2 3 3 2 1 0 2 4 3 2 6 5 4 3 5 7 7 7 8
2 2 3 3 4 2 2 1 0 2 4 3 1 1 2 1 3 3 2 2 6 2 3 2 3 3 8 3 1 1 2 3 3 5 3 2 6 6 3 3 7 11 9 9 8
1 2 2 3 3 3 3 3 1 2 2 4 3 2 2 2 4 2 3 3 8 6 3 2 2 4 8 4 2 3 2 3 1 1 5 4 6 1 10 20 19 18 17 11 9
2 3 4 4 1 4 2 3 4 0 1 1 2 4 3 2 1 4 4 4 8 4 8 2 2 5 5 3 1 6 6 5 4 5 9 12 22 18 18 17 18 16 10 9 7
3 1 2 2 2 3 2 1 2 4 3 5 3 3 1 2 3 2 3 6 4 8 3 2 3 3 4 6 5 10 11 8 7 13 8 19 16 19 14 10 9 8 11 10 9
2 2 2 1 1 3 1 3 3 2 2 1 1 2 2 3 3 4 1 0 5 5 4 6 3 3 4 7 7 11 13 12 12 11 10 12 12 5 8 7 12 13 13 13 13
1 1 3 1 2 4 4 4 3 2 1 2 3 1 3 6 4 7 8 6 5 1 4 4 2 4 3 5 9 8 4 4 3 1 3 4 6 7 10 6 10 14 16 13 12
Wind_Direction
2 357 354 350 345 346 345 345 345 344 342 339 338 340 341 341 338 33 33 291 325 329 334 310 18 5 37 48 34 98 62 112 168 161 216 328 6 301 268 269 342 339 103 296 308
356 353 348 345 342 343 342 342 342 342 339 335 334 336 338 342 356 46 314 337 337 339 356 7 357 360 45 18 14 68 88 189 207 167 199 245 198 291 345 342 304 329 37 349 350
353 350 348 345 342 342 342 341 341 341 339 335 335 336 333 333 83 328 337 347 351 348 285 298 313 41 51 5 356 24 126 179 217 189 202 245 266 185 248 309 235 261 296 333 262
349 347 345 342 338 338 338 338 339 339 343 343 342 338 328 69 77 295 340 346 358 1 24 8 31 54 71 38 330 71 30 54 296 51 345 300 307 300 194 234 254 264 268 279 269
348 347 345 340 335 335 332 334 335 336 345 347 347 341 325 54 33 329 337 346 4 16 32 16 50 72 77 54 44 59 337 322 304 313 272 316 280 263 268 274 285 286 291 268 292
350 348 345 342 336 335 330 332 329 329 346 349 349 340 340 74 307 334 347 354 10 26 21 26 35 44 103 46 60 284 268 279 316 318 294 322 283 113 287 241 352 355 299 315 286
352 350 347 344 339 334 332 335 328 322 354 354 356 18 51 104 338 341 4 1 357 31 43 23 1 41 168 102 275 275 7 3 12 343 337 302 293 229 247 9 357 333 329 318 296
353 351 347 345 339 334 335 338 9 72 30 359 349 54 74 307 325 7 346 4 353 43 130 224 29 97 34 322 25 40 55 18 318 346 356 48 272 258 213 22 317 311 313 306 101
354 352 348 345 338 334 334 340 14 60 32 3 36 75 53 321 19 319 17 328 305 336 341 311 83 87 25 52 20 10 21 345 324 40 347 11 272 254 273 326 288 290 278 188 157
351 351 349 347 339 335 337 7 354 41 5 26 57 37 12 316 305 327 310 354 6 337 10 36 48 70 32 42 223 311 349 314 257 315 1 285 271 288 277 234 251 260 240 206 193
350 348 348 352 343 347 7 24 20 354 39 95 253 213 309 301 292 345 341 345 4 49 22 2 60 94 149 72 148 152 257 285 270 285 339 279 286 293 300 230 234 237 211 228 230
347 346 346 347 344 9 38 66 113 241 34 337 277 291 243 316 353 340 2 43 36 37 347 17 70 222 270 189 213 238 299 295 285 300 341 325 299 293 290 220 191 201 219 239 252
343 345 344 343 12 34 64 53 350 141 74 330 343 346 297 14 348 311 23 2 48 42 13 125 306 344 17 359 358 268 215 229 244 315 250 307 312 353 341 353 100 125 185 171 288
344 343 344 342 37 327 53 330 351 129 80 316 348 6 26 23 355 318 32 52 35 49 21 303 279 16 327 285 127 294 199 319 301 11 291 27 274 307 340 323 59 61 51 29 350
342 341 343 15 270 44 302 327 321 71 46 281 308 176 36 79 284 339 339 28 132 320 82 263 335 267 298 237 127 243 316 285 250 202 20 318 72 273 317 185 115 102 119 360 337
339 336 339 2 8 263 328 317 64 48 270 341 315 354 13 4 301 313 4 57 100 84 325 252 277 208 240 338 270 316 15 44 30 88 8 246 139 280 228 205 138 155 351 289 292
337 334 337 12 304 330 344 33 38 110 340 327 327 9 351 305 331 349 3 15 20 21 359 344 326 322 97 331 0 45 50 338 355 3 236 349 15 245 254 226 155 174 258 276 287
336 334 328 247 316 340 45 41 77 260 264 350 330 311 260 21 6 334 359 360 36 74 65 51 331 212 153 173 208 360 123 149 247 247 276 322 244 260 334 139 126 256 265 292 296
336 343 339 298 340 46 66 51 187 205 300 325 325 356 334 14 38 27 11 253 317 25 155 62 272 266 164 197 128 127 148 168 93 18 27 259 293 283 220 286 277 306 312 298 290
38 356 290 334 0 65 69 147 210 252 343 355 296 31 308 315 352 40 248 264 193 193 167 211 298 189 322 16 356 165 164 51 29 327 281 291 280 248 280 251 308 332 310 293 283
48 31 264 342 68 44 104 218 244 290 336 203 249 304 293 312 309 280 261 348 333 315 26 142 147 300 31 211 194 50 312 286 132 155 213 289 265 209 229 244 343 311 302 296 286
30 7 312 9 47 21 97 198 354 347 3 331 296 262 270 303 267 285 310 6 352 345 327 322 161 273 242 268 273 192 242 145 133 274 218 161 259 313 344 23 305 297 290 286 273
56 277 328 58 79 2 315 336 3 10 351 336 327 29 1 322 316 286 3 6 15 15 4 336 342 336 334 9 33 67 19 81 2 166 216 242 259 293 320 329 323 312 309 304 310
32 346 338 48 69 114 10 335 310 51 203 262 312 45 357 331 260 301 336 6 335 343 353 28 249 206 219 270 338 292 306 300 191 256 292 255 288 294 302 324 323 325 321 317 318
34 291 182 329 350 98 51 329 302 305 358 36 29 50 354 290 303 280 17 336 336 347 354 35 245 222 273 296 288 284 279 266 256 259 250 290 284 295 320 321 313 308 344 347 342
166 144 10 177 281 96 18 231 211 238 212 203 197 86 347 287 281 282 26 113 264 348 27 355 290 351 267 267 293 290 289 269 261 270 260 271 283 357 317 329 10 1 349 350 344
155 13 125 269 145 110 215 205 201 180 62 83 132 68 283 257 249 242 218 215 237 311 3 326 306 9 289 345 328 307 256 256 285 354 292 14 324 316 337 321 22 8 3 340 327